Temp_Advection
nan nan nan nan nan nan nan nan nan nan nan nan nan nan nan nan nan nan nan nan nan nan nan nan nan nan nan
nan 0 0 1 0 0 0 0 -0 0 0 -0 0 0 -0 0 0 0 0 0 0 0 -0 -0 0 0 nan
nan 0 0 -0 0 -0 0 0 0 0 -0 -0 0 0 0 0 0 0 0 0 -0 0 0 -0 -0 -0 nan
nan -0 -0 0 0 -0 0 1 1 -0 0 0 0 0 -0 -0 0 1 0 0 -0 -0 -0 -0 -0 -0 nan
nan -0 -0 -0 -0 0 1 1 0 -0 0 0 0 0 0 0 0 0 0 0 -0 -0 -0 -0 -0 -0 nan
nan -1 -0 0 0 1 0 0 -0 0 0 0 0 0 0 0 0 0 0 0 -0 0 -0 -0 -0 -0 nan
nan 0 0 0 1 1 0 0 0 -0 -0 1 1 0 0 0 1 0 0 0 -0 -0 -0 -1 -1 -0 nan
nan 0 0 1 1 0 0 0 -0 -0 1 0 0 0 0 0 0 0 0 0 0 -0 -0 -0 -1 -0 nan
nan 1 1 1 0 0 0 -0 0 0 1 -0 0 0 -0 0 0 0 -0 0 0 -0 -0 0 -0 -0 nan
nan 1 0 0 0 0 -0 -0 0 0 0 0 0 0 -0 -0 0 0 -0 0 1 0 0 0 0 -1 nan
nan 1 0 0 1 0 0 0 0 0 0 0 1 0 0 -0 0 0 -0 -0 0 0 0 0 0 0 nan
nan 0 1 1 1 0 -0 0 0 0 0 1 1 0 0 0 -0 0 0 -0 -0 0 0 0 -0 0 nan
nan 1 1 0 0 0 0 -0 0 -0 0 1 0 0 0 0 -0 -0 -0 -0 -0 -0 0 0 -0 -1 nan
nan 1 0 -0 0 0 0 0 -0 -0 1 1 0 0 0 0 0 0 -0 -1 -1 -1 -0 0 0 -0 nan
nan 1 -0 0 1 0 0 0 -0 1 1 1 0 0 0 -0 -0 0 0 -0 -0 -1 -1 -0 0 -0 nan
nan 1 0 1 1 0 0 -0 0 1 2 0 0 0 0 0 0 -0 -0 -0 0 -0 -1 -1 -0 -0 nan
nan nan nan nan nan nan nan nan nan nan nan nan nan nan nan nan nan nan nan nan nan nan nan nan nan nan nan
Wind_Speed
10 14 22 22 30 30 27 25 21 19 18 16 17 15 16 19 22 25 28 30 33 34 37 39 39 39 39
16 14 16 21 21 27 27 24 20 21 17 17 16 15 17 20 23 26 29 32 33 35 37 37 38 38 39
17 16 17 16 19 17 23 24 22 19 16 17 15 16 19 21 25 27 29 31 34 36 36 36 38 38 38
20 16 16 16 18 16 18 21 20 14 17 16 14 17 20 23 25 27 30 33 34 35 36 35 37 35 34
25 20 17 18 17 17 17 16 14 17 16 14 17 19 21 22 25 28 30 30 32 34 33 34 33 32 33
30 25 22 20 18 17 14 15 16 14 13 17 18 18 20 24 26 29 27 28 30 29 33 32 32 32 32
35 30 24 19 15 15 13 13 16 12 15 20 20 19 20 23 27 24 25 25 27 31 31 31 30 30 31
33 27 23 20 17 17 15 17 14 20 19 19 18 19 21 23 22 23 21 27 30 29 29 28 30 31 32
31 29 30 28 22 19 16 17 20 18 17 16 18 19 20 20 20 19 24 27 27 28 26 28 31 32 32
39 38 34 30 23 21 21 19 20 17 16 14 14 15 13 17 18 23 24 25 26 24 23 26 30 35 36
41 41 38 34 29 25 24 21 19 18 15 14 16 14 14 17 22 22 23 26 25 21 22 24 26 34 40
42 43 40 39 38 33 26 23 20 17 14 18 15 14 15 18 20 22 21 21 22 24 25 23 25 26 31
45 45 44 41 36 32 29 23 20 14 17 18 14 14 14 16 19 22 23 21 17 24 24 26 32 35 36
43 44 44 41 38 34 29 24 17 19 21 16 14 13 13 15 17 18 20 18 21 23 22 24 27 31 33
39 42 45 43 39 34 29 24 21 21 18 17 14 12 12 13 14 15 15 16 19 21 23 24 28 28 32
40 44 47 45 40 36 31 26 24 23 21 17 14 12 10 12 12 11 13 14 15 18 24 28 28 25 31
41 45 46 43 40 37 32 27 27 28 21 18 14 11 8 9 11 9 11 13 14 17 22 27 31 27 36
Wind_Direction
225 228 229 228 228 228 231 235 240 249 251 260 270 281 291 299 306 310 312 315 315 318 319 322 322 321 321
236 233 232 226 227 229 232 234 239 245 249 258 270 277 288 299 306 309 312 312 315 317 320 321 319 320 329
243 240 237 226 226 227 229 232 235 240 247 257 267 284 293 302 306 309 308 312 315 317 319 321 321 326 329
237 237 233 221 212 222 228 227 226 238 251 258 274 285 294 303 307 306 310 314 315 318 319 323 323 328 330
233 230 229 222 217 217 211 208 219 232 246 271 283 288 299 306 306 311 314 314 318 319 320 322 326 331 334
231 231 230 230 222 217 205 208 222 241 267 273 286 297 302 306 311 313 312 318 318 321 321 327 331 335 333
229 232 228 226 219 213 220 229 235 249 272 274 284 294 306 310 312 309 317 317 321 321 328 334 331 332 335
227 236 230 218 234 248 247 231 239 264 262 271 288 299 304 311 309 315 320 322 323 330 335 332 329 334 338
219 224 222 231 238 226 222 240 251 254 261 276 287 298 307 312 315 319 321 324 329 333 334 333 332 335 338
212 217 222 229 227 229 236 244 249 251 263 271 285 299 316 313 320 320 326 327 329 331 338 338 336 335 339
212 216 220 224 228 232 237 238 247 255 267 274 281 298 299 305 314 321 327 328 330 334 342 345 342 339 340
213 217 220 226 227 224 233 237 243 252 270 272 278 289 297 309 314 318 325 326 328 342 351 348 340 344 346
216 220 225 227 226 226 226 229 239 249 268 270 273 279 294 307 313 318 325 333 338 351 353 354 348 350 350
219 222 218 217 221 223 223 222 234 251 256 259 260 274 293 306 312 320 326 337 345 352 354 357 355 354 351
214 212 212 216 216 215 218 223 230 243 245 243 248 268 285 304 311 317 326 342 347 347 350 358 5 355 354
209 211 214 212 212 214 216 213 227 238 235 235 247 257 281 303 308 317 334 344 349 351 350 355 2 1 2
210 210 211 214 213 212 208 211 229 229 225 228 236 251 285 293 298 318 335 342 352 356 360 355 354 7 7
Height
1547 1549 1553 1556 1559 1562 1565 1569 1571 1574 1574 1574 1575 1573 1573 1572 1570 1568 1566 1562 1558 1554 1549 1545 1539 1532 1527
1546 1546 1550 1552 1555 1558 1562 1565 1567 1570 1570 1571 1571 1569 1569 1568 1566 1564 1562 1558 1553 1549 1545 1540 1533 1528 1521
1543 1545 1547 1547 1551 1554 1557 1560 1563 1565 1565 1567 1566 1566 1566 1564 1563 1561 1557 1552 1549 1544 1539 1535 1530 1523 1516
1539 1542 1543 1544 1545 1550 1553 1557 1560 1560 1563 1564 1562 1563 1562 1561 1558 1556 1553 1549 1545 1539 1535 1531 1526 1518 1511
1536 1538 1537 1541 1544 1548 1551 1554 1555 1558 1558 1560 1560 1560 1558 1556 1554 1552 1549 1545 1540 1536 1532 1527 1520 1513 1506
1529 1533 1535 1539 1542 1546 1547 1550 1554 1555 1555 1558 1557 1555 1554 1553 1551 1549 1545 1541 1537 1532 1529 1522 1515 1508 1503
1522 1528 1532 1537 1542 1542 1545 1546 1550 1550 1551 1553 1553 1551 1549 1548 1548 1546 1542 1539 1535 1529 1523 1518 1511 1506 1501
1516 1526 1530 1533 1538 1540 1541 1543 1544 1546 1548 1549 1548 1546 1546 1544 1543 1542 1537 1535 1532 1525 1519 1515 1510 1503 1498
1511 1519 1523 1527 1531 1534 1535 1539 1540 1542 1544 1544 1545 1543 1541 1539 1539 1538 1536 1531 1527 1522 1518 1512 1505 1500 1495
1501 1510 1515 1521 1525 1527 1532 1535 1537 1538 1540 1540 1541 1540 1538 1537 1535 1535 1532 1528 1523 1520 1515 1511 1502 1494 1488
1495 1502 1509 1514 1517 1522 1526 1530 1533 1535 1536 1537 1538 1537 1536 1536 1532 1530 1529 1525 1521 1519 1515 1507 1502 1492 1481
1488 1496 1501 1506 1510 1514 1520 1524 1528 1530 1531 1534 1534 1535 1533 1531 1530 1527 1526 1522 1517 1515 1512 1506 1501 1496 1487
1480 1488 1495 1499 1505 1509 1514 1518 1523 1524 1527 1530 1532 1531 1530 1528 1526 1521 1520 1519 1514 1509 1508 1501 1494 1488 1479
1472 1479 1486 1493 1496 1502 1508 1514 1517 1521 1524 1525 1528 1528 1526 1524 1523 1520 1520 1517 1511 1508 1505 1501 1496 1489 1480
1463 1471 1478 1484 1489 1496 1503 1509 1513 1516 1519 1522 1523 1524 1523 1522 1519 1516 1516 1516 1508 1504 1502 1497 1494 1488 1480
1454 1462 1469 1476 1482 1490 1498 1503 1508 1512 1514 1517 1519 1519 1519 1518 1518 1516 1513 1511 1507 1502 1498 1493 1491 1486 1479
1446 1453 1461 1470 1477 1485 1493 1497 1504 1507 1509 1513 1515 1517 1515 1517 1518 1516 1512 1510 1506 1503 1496 1490 1485 1481 1472